KC5EZZ-2 Weather Reports


time (UTC)temp
F
wind
direction
speed
knots
gust
knots
rain 1hr
in
rain 24hr
in
rain mn
in
humidity
%
barometer
mb
20260504030454 68 124 5.2 5.2 0.00 0.00 0.00
20260504025954 69 134 6.1 5.2 0.00 0.00 0.00
20260504025452 69 142 6.1 7.0 0.00 0.00 0.00
20260504024952 69 155 5.2 5.2 0.00 0.00 0.00
20260504024453 69 141 5.2 6.1 0.00 0.00 0.00
20260504023950 70 166 5.2 6.1 0.00 0.00 0.00
20260504023451 70 142 6.1 7.0 0.00 0.00 0.00
20260504022951 70 129 5.2 6.1 0.00 0.00 0.00
20260504022449 70 141 6.1 5.2 0.00 0.00 0.00
20260504021949 70 145 6.1 7.0 0.00 0.00 0.00
20260504021450 71 128 7.0 5.2 0.00 0.00 0.00
20260504020947 71 134 6.1 7.0 0.00 0.00 0.00
20260504020448 71 139 6.1 7.8 0.00 0.00 0.00
20260504015948 71 153 6.1 4.3 0.00 0.00 0.00
20260504015445 71 120 6.1 7.0 0.00 0.00 0.00
20260504014946 71 145 5.2 7.8 0.00 0.00 0.00
20260504014446 71 145 5.2 7.0 0.00 0.00 0.00
20260504013944 72 159 6.1 6.1 0.00 0.00 0.00
20260504013444 72 155 6.1 6.1 0.00 0.00 0.00
20260504012945 72 153 6.1 4.3 0.00 0.00 0.00
20260504012442 72 141 6.1 8.7 0.00 0.00 0.00
20260504011943 72 145 7.8 6.1 0.00 0.00 0.00
20260504010941 73 145 6.1 7.8 0.00 0.00 0.00
20260504010441 73 173 8.7 6.1 0.00 0.00 0.00
20260504005941 73 153 8.7 7.8 0.00 0.00 0.00
20260504005439 73 131 8.7 8.7 0.00 0.00 0.00
20260504004939 74 155 8.7 6.1 0.00 0.00 0.00
20260504004440 74 186 10.4 9.6 0.00 0.00 0.00
20260504003937 74 152 7.8 7.8 0.00 0.00 0.00
20260504003437 74 160 8.7 7.0 0.00 0.00 0.00
20260504002938 74 156 8.7 9.6 0.00 0.00 0.00
20260504002435 75 180 5.2 6.1 0.00 0.00 0.00
20260504001936 75 150 7.0 6.1 0.00 0.00 0.00
20260504001436 75 120 8.7 7.0 0.00 0.00 0.00
20260504000933 75 152 8.7 7.8 0.00 0.00 0.00
20260504000434 75 146 8.7 7.8 0.00 0.00 0.00
20260503235934 76 125 8.7 7.0 0.00 0.00 0.00
20260503235432 76 128 10.4 11.3 0.00 0.00 0.00
20260503234932 76 107 10.4 8.7 0.00 0.00 0.00
20260503234432 76 179 7.0 10.4 0.00 0.00 0.00
20260503233930 76 131 7.8 11.3 0.00 0.00 0.00
20260503233430 76 129 8.7 9.6 0.00 0.00 0.00
20260503232931 76 139 9.6 9.6 0.00 0.00 0.00
20260503232428 77 141 11.3 7.0 0.00 0.00 0.00
20260503231929 77 155 8.7 8.7 0.00 0.00 0.00
20260503231429 77 167 9.6 8.7 0.00 0.00 0.00
20260503230927 77 127 7.0 7.0 0.00 0.00 0.00
20260503230427 77 128 7.8 7.0 0.00 0.00 0.00
20260503225927 77 142 9.6 9.6 0.00 0.00 0.00
20260503225425 77 146 11.3 8.7 0.00 0.00 0.00
20260503224926 78 159 7.8 9.6 0.00 0.00 0.00
20260503224426 77 127 9.6 10.4 0.00 0.00 0.00
20260503223923 77 125 11.3 8.7 0.00 0.00 0.00
20260503223424 77 128 10.4 9.6 0.00 0.00 0.00
20260503222924 77 149 7.0 7.8 0.00 0.00 0.00
20260503222422 76 150 11.3 8.7 0.00 0.00 0.00
20260503221922 77 150 7.8 9.6 0.00 0.00 0.00
20260503221422 77 129 9.6 12.2 0.00 0.00 0.00
20260503220920 78 166 8.7 8.7 0.00 0.00 0.00
20260503220420 78 136 8.7 10.4 0.00 0.00 0.00
20260503215921 78 159 7.8 7.8 0.00 0.00 0.00
20260503215418 77 129 11.3 13.0 0.00 0.00 0.00
20260503214919 78 97 9.6 7.8 0.00 0.00 0.00
20260503214419 78 142 11.3 11.3 0.00 0.00 0.00
20260503213917 78 105 11.3 10.4 0.00 0.00 0.00
20260503213417 78 148 10.4 8.7 0.00 0.00 0.00
20260503212918 78 110 9.6 9.6 0.00 0.00 0.00
20260503212415 78 142 8.7 11.3 0.00 0.00 0.00
20260503211916 78 120 13.0 9.6 0.00 0.00 0.00
20260503211416 80 117 9.6 14.8 0.00 0.00 0.00
20260503210915 81 153 7.8 7.8 0.00 0.00 0.00
20260503210414 82 167 7.8 6.1 0.00 0.00 0.00
20260503205914 81 127 9.6 8.7 0.00 0.00 0.00
20260503205412 81 183 7.8 7.8 0.00 0.00 0.00
20260503204912 80 176 10.4 6.1 0.00 0.00 0.00
20260503204413 80 195 8.7 6.1 0.00 0.00 0.00
20260503203910 80 180 7.8 7.8 0.00 0.00 0.00
20260503203411 80 156 10.4 12.2 0.00 0.00 0.00
20260503202911 81 176 7.0 10.4 0.00 0.00 0.00
20260503202409 80 124 3.5 1.7 0.00 0.00 0.00
20260503201909 80 187 8.7 7.8 0.00 0.00 0.00
20260503201409 79 105 11.3 10.4 0.00 0.00 0.00
20260503200907 79 135 7.0 7.8 0.00 0.00 0.00
20260503200407 79 118 11.3 9.6 0.00 0.00 0.00
20260503195908 79 183 7.0 9.6 0.00 0.00 0.00
20260503195405 79 177 8.7 8.7 0.00 0.00 0.00
20260503194906 80 159 8.7 11.3 0.00 0.00 0.00
20260503194406 79 136 8.7 12.2 0.00 0.00 0.00
20260503193904 78 138 7.0 8.7 0.00 0.00 0.00
20260503193404 78 134 7.8 9.6 0.00 0.00 0.00
20260503192904 77 162 6.1 7.0 0.00 0.00 0.00
20260503192402 79 128 8.7 7.8 0.00 0.00 0.00
20260503191902 79 186 11.3 11.3 0.00 0.00 0.00
20260503191403 79 118 8.7 8.7 0.00 0.00 0.00
20260503190900 78 129 12.2 9.6 0.00 0.00 0.00
20260503190401 78 146 9.6 8.7 0.00 0.00 0.00
20260503185901 78 145 8.7 7.8 0.00 0.00 0.00
20260503185359 78 117 8.7 7.0 0.00 0.00 0.00
20260503184859 79 135 7.0 7.0 0.00 0.00 0.00
20260503184359 78 184 10.4 7.0 0.00 0.00 0.00
20260503183857 79 152 8.7 13.0 0.00 0.00 0.00
20260503183357 78 138 9.6 10.4 0.00 0.00 0.00
20260503182857 78 198 12.2 8.7 0.00 0.00 0.00
20260503182355 78 129 8.7 10.4 0.00 0.00 0.00
20260503181855 78 134 7.0 7.8 0.00 0.00 0.00
20260503181356 78 118 12.2 8.7 0.00 0.00 0.00
20260503180853 78 153 4.3 2.6 0.00 0.00 0.00
20260503180354 78 200 7.8 8.7 0.00 0.00 0.00
20260503175854 77 134 8.7 8.7 0.00 0.00 0.00
20260503175352 75 120 8.7 8.7 0.00 0.00 0.00
20260503174852 76 108 11.3 7.8 0.00 0.00 0.00
20260503174352 77 122 7.0 13.0 0.00 0.00 0.00
20260503173850 77 193 9.6 8.7 0.00 0.00 0.00
20260503173350 76 149 9.6 7.8 0.00 0.00 0.00
20260503172851 77 190 9.6 9.6 0.00 0.00 0.00
20260503172348 77 173 9.6 7.0 0.00 0.00 0.00
20260503171848 76 203 7.8 7.8 0.00 0.00 0.00
20260503171349 76 200 8.7 12.2 0.00 0.00 0.00
20260503170846 76 169 9.6 9.6 0.00 0.00 0.00
20260503170347 75 156 9.6 7.0 0.00 0.00 0.00
20260503150834 70 194 7.0 7.0 0.00 0.00 0.00
20260503150334 69 197 6.1 6.1 0.00 0.00 0.00
20260503131323 66 11 0.0 0.0 0.00 0.07 0.00
20260503130820 65 11 0.0 0.0 0.00 0.07 0.00
20260503130321 64 11 0.0 0.0 0.00 0.07 0.00
20260503110808 48 333 0.0 0.0 0.00 0.07 0.00
20260503110309 49 353 1.7 0.9 0.00 0.07 0.00
20260503090254 44 156 0.0 0.0 0.00 0.07 0.00
20260503081250 53 156 0.0 0.0 0.00 0.07 0.00
20260503080748 53 156 0.0 0.0 0.00 0.07 0.00
20260503080248 53 156 0.0 0.0 0.00 0.07 0.00
20260503072745 54 156 0.0 0.0 0.00 0.07 0.00
20260503072242 55 156 0.0 0.0 0.00 0.07 0.00
20260503071743 55 156 0.0 0.0 0.00 0.07 0.00
20260503071243 54 156 0.0 0.0 0.00 0.07 0.00
20260503070741 54 156 0.0 0.0 0.00 0.07 0.00
20260503070241 54 156 0.0 0.0 0.00 0.07 0.00
20260503060235 57 146 0.9 1.7 0.00 0.07 0.00
20260503054734 57 150 0.9 0.9 0.00 0.07 0.00
20260503054234 57 149 1.7 0.9 0.00 0.07 0.00
20260503053732 58 146 1.7 1.7 0.00 0.07 0.00
20260503053233 58 149 2.6 1.7 0.00 0.07 0.00
20260503052733 57 159 2.6 2.6 0.00 0.07 0.00
20260503052231 58 191 3.5 3.5 0.00 0.07 0.00
20260503051731 58 177 3.5 2.6 0.00 0.07 0.00
20260503051232 57 180 4.3 3.5 0.00 0.07 0.00
20260503050729 57 183 2.6 3.5 0.00 0.07 0.00
20260503050230 57 183 1.7 2.6 0.00 0.07 0.00
20260503045730 57 156 0.0 0.0 0.00 0.07 0.00
20260503045228 57 156 0.0 0.0 0.00 0.07 0.00
20260503044728 56 156 0.0 0.0 0.00 0.07 0.00
20260503044229 56 156 0.9 0.0 0.00 0.07 0.00
20260503043920 56 169 0.0 0.0 0.00 0.07 0.00
20260503043727 56 169 0.0 0.0 0.00 0.07 0.00
20260503043227 56 128 0.0 0.0 0.00 0.07 0.00
20260503042728 57 128 0.0 0.0 0.00 0.07 0.00
20260503042410 57 160 1.7 1.7 0.00 0.07 0.00
20260503042225 57 165 0.9 0.9 0.00 0.07 0.00
20260503041726 57 160 1.7 1.7 0.00 0.07 0.00
20260503041226 56 174 1.7 2.6 0.00 0.07 0.00
20260503040724 57 238 0.0 0.0 0.00 0.07 0.00
20260503040225 56 238 0.0 0.0 0.00 0.07 0.00
20260503035725 56 238 0.0 0.0 0.00 0.07 0.00
20260503035223 57 238 0.0 0.0 0.00 0.07 0.00
20260503034723 57 238 0.0 0.0 0.00 0.07 0.00
20260503034303 57 238 0.0 0.0 0.00 0.07 0.00
20260503034225 57 238 0.0 0.0 0.00 0.07 0.00
20260503034222 57 238 0.0 0.0 0.00 0.07 0.00
20260503033719 57 238 0.0 0.0 0.00 0.07 0.00
20260503033238 60 70 0.0 0.0 0.00 0.07 0.00
20260503033220 57 238 0.0 0.0 0.00 0.07 0.00
20260503032720 58 238 0.0 0.0 0.00 0.07 0.00
20260503032218 58 238 0.0 0.0 0.00 0.07 0.00
20260503031718 58 238 0.0 0.0 0.00 0.07 0.00
20260503031219 58 238 0.0 0.0 0.00 0.07 0.00